Theta_e
327 324 316 322 322 319 318 317 317 323 329 327 325 328 330 332 329 329 331 333 335 335 339 343 345 345 346 346 347 351 351 356 357 355 353 352 350 356 361 360 364 366 369 372
323 320 324 323 322 319 317 315 318 324 327 327 325 326 331 332 330 330 330 332 334 335 336 341 344 345 346 348 350 351 353 357 358 356 356 356 353 353 356 362 364 365 365 366
320 316 324 322 320 317 316 315 317 319 325 326 325 323 328 332 333 332 332 334 335 336 334 338 342 344 346 348 351 354 357 358 360 363 357 359 359 356 354 356 357 364 367 366
322 325 321 319 317 317 312 319 319 322 320 314 320 307 325 329 330 331 331 332 333 335 337 340 341 342 343 346 350 354 357 360 361 364 361 361 355 350 351 355 363 362 366 365
318 320 319 317 317 318 318 321 321 323 321 317 318 313 323 329 327 330 332 332 334 337 338 339 338 340 344 347 348 351 358 363 363 364 366 358 360 352 354 359 366 367 370 368
321 325 321 321 319 321 323 322 322 323 320 303 313 315 316 323 327 331 334 335 335 336 337 339 341 342 343 345 347 349 358 363 365 364 365 366 362 360 353 358 362 358 365 363
318 318 322 323 318 323 323 319 308 305 309 306 314 316 318 324 328 330 333 336 338 337 338 338 339 340 342 343 345 347 354 360 364 363 363 364 363 364 360 359 356 356 362 355
311 310 318 322 319 317 319 317 305 303 306 309 317 310 318 327 330 333 335 335 337 338 337 338 340 341 342 343 345 346 350 358 362 363 365 370 372 361 358 359 355 357 359 361
312 311 321 321 321 319 316 313 318 310 313 307 311 320 325 328 328 330 332 336 335 338 338 339 342 343 344 345 346 347 350 356 359 359 364 370 369 369 363 367 363 356 362 359
317 305 314 319 319 319 317 319 311 311 302 303 308 315 317 325 328 330 330 333 336 339 340 341 342 343 346 345 345 347 350 352 358 358 362 363 365 368 366 363 364 362 361 367
319 315 313 315 313 313 314 312 314 313 312 306 305 307 327 329 332 332 333 335 337 339 342 342 344 345 346 345 345 346 348 351 355 358 365 366 365 365 366 362 363 366 363 368
319 315 310 311 317 318 317 314 314 308 308 312 312 315 331 333 333 335 337 339 341 340 340 342 343 344 346 348 348 348 348 351 355 361 369 365 364 365 362 362 361 369 368 368
318 313 308 310 313 315 313 315 315 314 314 311 310 313 328 334 336 338 340 345 348 348 350 349 348 349 352 352 351 353 355 354 356 363 360 359 361 360 360 360 362 364 371 373
321 315 312 307 311 315 312 313 315 314 308 311 313 311 323 332 336 338 337 338 341 345 351 352 351 353 355 357 358 358 356 357 359 356 357 358 358 360 359 362 367 362 372 372
319 311 314 312 316 315 313 313 313 314 314 307 308 319 327 329 333 332 336 337 337 338 342 347 350 352 355 356 358 360 357 359 358 360 360 361 363 365 367 373 373 369 371 372
320 313 316 313 314 313 312 314 315 315 315 316 317 313 330 333 333 334 335 334 334 336 339 343 347 351 353 355 357 359 360 362 363 360 360 364 366 366 366 369 368 371 371 372
317 313 313 308 315 314 309 314 315 317 318 318 315 319 334 331 331 333 334 334 335 337 340 342 344 346 347 349 353 354 358 363 364 365 365 366 367 367 368 368 370 364 366 359
317 316 315 310 314 304 316 324 321 318 320 321 321 318 330 330 331 334 337 337 338 340 339 338 338 341 344 347 349 351 354 360 361 362 361 363 362 360 362 360 357 356 350 356
321 317 313 310 308 312 316 320 320 318 319 325 327 331 332 332 332 333 338 340 340 341 340 339 341 343 347 346 349 351 348 349 354 357 358 359 360 360 359 356 358 357 357 357
320 320 314 313 306 304 317 324 328 327 316 329 330 332 330 331 324 329 339 341 341 341 340 339 341 342 341 344 346 346 346 346 349 354 355 357 358 357 356 357 358 358 358 357
315 315 312 311 309 311 321 323 327 313 321 329 334 336 333 329 336 338 342 341 342 341 340 341 341 341 343 343 345 347 345 346 351 353 355 357 357 356 357 357 358 357 356 356
313 312 311 313 311 307 324 320 315 329 332 335 336 339 336 339 340 341 341 340 340 339 339 338 341 342 344 344 346 348 348 352 355 356 357 357 356 353 352 355 357 356 357 356
314 317 315 314 318 329 327 328 332 335 335 336 338 339 340 339 341 342 341 340 340 340 340 341 340 341 344 347 348 349 353 353 354 354 353 353 354 353 353 354 353 350 357 349
323 329 322 320 325 325 327 330 332 335 336 338 339 340 340 340 343 342 340 340 339 339 340 341 340 341 345 349 350 352 355 355 354 353 352 352 350 349 353 345 344 342 341 343
326 328 322 322 328 328 327 331 332 332 334 336 340 341 341 340 340 340 338 337 337 342 342 344 345 346 347 352 353 354 357 357 353 352 349 348 344 348 348 350 343 343 344 336
326 324 321 321 329 328 329 331 333 331 329 331 331 332 335 336 335 335 336 336 338 342 344 346 347 348 349 348 350 354 358 358 353 348 344 343 341 342 343 341 345 315 316 312
Wind_Speed
16 14 22 19 10 5 2 3 3 9 9 8 6 13 13 13 13 16 15 16 16 15 14 13 11 12 10 12 11 14 12 12 8 7 7 7 5 3 2 3 4 1 4 4
13 17 12 6 3 6 4 2 7 9 10 8 7 12 15 14 13 14 15 14 15 16 15 14 15 13 14 14 12 11 11 11 9 8 6 5 2 4 3 3 4 2 2 3
18 20 1 4 8 10 11 10 7 4 12 6 9 8 14 17 13 13 15 14 15 16 17 17 15 13 12 14 13 12 12 10 10 11 5 4 4 4 4 6 8 8 4 4
12 11 5 5 9 11 7 4 3 10 14 9 27 12 18 19 17 15 16 14 16 15 15 16 18 16 16 13 12 13 12 12 10 10 7 5 6 6 6 6 7 6 5 4
14 9 4 8 11 10 9 1 9 15 16 6 15 11 18 17 17 16 16 18 16 12 14 16 16 16 15 16 15 15 14 12 11 11 11 8 9 6 4 1 3 3 7 4
19 7 4 11 5 3 5 11 11 12 5 15 7 22 15 11 13 19 17 16 17 17 16 14 13 11 10 12 13 13 14 11 11 11 11 11 7 7 4 4 2 4 4 9
14 18 13 8 12 5 13 15 8 4 9 5 5 6 14 7 5 4 21 20 18 17 15 15 13 13 11 8 8 8 12 11 12 13 13 13 10 8 7 6 7 5 3 6
14 15 13 11 13 13 14 6 5 6 2 10 3 10 11 8 5 1 5 19 18 15 15 15 15 12 9 10 10 10 13 12 13 13 12 10 10 8 8 8 8 5 3 6
17 17 15 7 6 9 13 8 8 7 13 15 10 14 13 9 6 0 2 6 11 13 12 13 14 14 11 10 11 11 11 12 11 14 11 11 10 11 8 7 8 7 5 4
16 10 20 9 9 11 16 15 10 6 6 3 3 13 12 10 9 7 5 8 8 9 9 11 12 12 11 12 13 13 14 13 12 11 12 11 12 11 11 8 8 7 6 6
15 10 14 8 11 16 9 13 13 2 14 10 7 3 9 9 12 10 9 8 5 6 9 10 8 10 13 13 12 14 13 12 13 12 11 11 12 12 12 11 11 10 9 7
17 10 9 17 7 6 11 13 14 8 3 14 4 14 12 9 11 11 10 9 6 4 2 2 4 6 4 8 12 11 9 13 11 11 10 12 12 12 13 13 13 11 10 10
12 11 10 14 12 8 11 10 12 16 6 19 5 5 5 9 11 10 11 9 7 4 2 4 4 4 4 7 8 8 7 8 8 11 12 13 14 14 14 14 13 13 12 11
6 18 13 7 10 11 7 7 5 17 11 11 9 12 12 14 13 15 12 10 9 9 8 7 6 5 5 3 3 4 5 7 7 9 11 11 12 13 13 12 11 13 12 11
11 11 25 18 14 12 3 7 4 11 12 7 22 14 17 17 16 16 14 12 11 11 11 9 8 7 6 5 4 1 4 5 6 7 6 6 7 8 8 7 7 9 9 9
14 8 5 6 1 4 8 7 7 8 6 9 35 14 21 18 17 15 14 12 12 11 11 10 9 9 8 7 6 5 4 2 1 4 6 6 5 5 6 6 8 7 7 8
13 7 1 7 6 7 11 12 7 6 2 13 8 14 22 18 16 15 15 13 12 11 10 9 9 9 8 9 7 6 5 4 5 4 3 1 1 2 1 2 1 6 4 4
8 8 3 11 6 9 12 8 4 7 6 0 20 20 20 15 14 14 13 13 11 10 8 7 9 8 8 8 8 7 7 6 5 5 5 5 4 5 3 3 0 4 2 4
10 9 5 4 7 11 11 8 3 7 7 5 21 21 18 15 15 12 12 11 10 9 8 8 8 9 6 7 5 5 6 6 5 5 4 3 3 4 4 3 3 4 4 6
13 9 9 7 8 8 12 9 4 10 8 12 16 18 17 17 12 12 12 12 11 9 8 8 7 8 10 4 6 5 7 7 7 6 6 5 4 3 2 2 1 2 4 6
12 9 11 10 7 7 11 4 4 12 7 2 9 13 12 9 11 18 14 12 9 9 8 7 4 6 6 4 8 6 7 8 6 5 4 4 3 3 3 2 2 3 4 5
9 10 11 10 8 6 5 1 7 7 2 3 6 11 9 11 14 14 13 11 9 8 8 4 4 6 7 5 4 6 6 5 4 3 4 4 3 3 3 2 3 4 4 6
7 6 6 2 6 8 4 3 3 5 6 2 6 10 10 11 11 12 10 9 9 8 5 2 4 7 5 4 4 5 4 3 3 3 3 3 2 3 2 2 2 6 6 5
3 5 5 2 9 4 5 3 3 4 5 4 6 10 9 10 12 10 11 10 10 9 7 4 4 6 5 4 4 4 4 4 3 3 2 1 2 1 2 4 3 4 4 3
5 5 7 5 7 4 4 5 6 6 5 7 4 4 5 6 9 10 7 4 6 9 6 5 4 3 4 2 1 1 4 4 3 3 3 4 5 1 1 2 4 4 5 4
7 6 7 0 7 7 7 6 4 7 4 5 4 2 3 2 1 3 1 5 2 8 6 4 3 3 2 2 3 3 2 3 4 5 7 2 3 4 1 3 6 4 5 6
Wind_Direction
218 260 149 231 43 36 13 344 154 125 178 207 171 140 164 174 190 182 186 189 185 206 192 193 201 170 182 167 182 186 192 202 206 207 207 210 224 195 233 252 122 185 179 113
241 251 69 26 334 293 195 199 133 124 172 238 181 162 167 181 186 181 195 193 188 190 188 206 188 196 187 176 186 192 212 205 204 216 221 296 255 243 224 259 98 190 291 130
253 358 3 322 298 291 97 121 173 189 185 199 166 190 176 181 182 180 193 192 198 184 182 187 197 204 200 182 192 194 202 213 209 248 202 194 269 262 246 221 210 179 182 199
268 220 328 290 274 325 60 68 162 179 201 198 129 230 192 177 183 189 196 201 195 189 191 183 186 199 199 197 198 197 198 205 214 224 250 237 276 247 204 236 81 132 171 210
242 215 246 262 32 317 60 359 188 189 227 97 192 8 151 173 181 189 200 195 207 212 201 184 206 195 206 185 192 193 190 206 224 196 240 201 231 223 245 26 100 253 142 213
269 311 234 302 301 299 294 232 207 196 115 322 29 99 275 161 190 186 198 204 203 199 212 210 208 220 206 197 193 188 170 188 207 221 207 239 244 263 257 217 79 278 165 167
234 247 243 224 262 203 237 245 329 83 255 150 83 125 68 78 112 261 189 198 201 194 201 196 210 209 209 215 199 190 166 185 199 206 211 212 219 209 240 250 233 118 246 260
227 203 208 209 239 283 269 301 229 314 7 113 360 69 75 84 83 45 296 185 193 202 196 202 190 203 202 206 201 195 172 190 194 203 208 204 206 212 219 206 256 257 116 261
184 231 199 205 234 255 287 255 314 295 342 84 251 98 99 91 81 152 145 84 189 197 223 195 199 197 192 198 212 197 189 183 200 196 201 201 203 226 218 235 198 240 266 249
289 50 293 199 234 248 277 324 284 245 210 331 15 39 98 109 99 92 133 161 180 202 217 233 204 212 183 205 199 203 191 197 195 210 191 203 207 213 227 212 225 245 252 220
274 180 177 181 212 214 191 246 247 74 272 265 93 134 99 117 114 112 132 136 143 152 199 214 213 220 216 201 213 199 201 211 195 198 194 199 202 207 211 214 211 217 223 219
247 304 198 205 120 311 308 294 286 227 294 308 73 104 100 117 120 114 105 113 109 115 323 271 209 194 252 280 207 219 238 195 206 202 196 194 205 210 208 215 210 210 216 219
216 251 175 193 170 190 238 220 264 291 269 228 96 163 335 120 124 113 117 112 108 89 121 250 235 259 205 218 249 205 222 256 210 199 208 211 199 209 219 208 215 205 211 217
303 252 85 15 304 317 167 201 245 271 52 356 3 161 192 158 136 120 115 108 113 112 104 92 95 65 50 353 301 288 236 207 224 230 207 226 218 218 219 219 217 216 204 216
248 289 126 213 228 210 21 308 233 280 103 122 216 143 161 153 143 125 120 114 111 99 92 95 100 107 110 109 87 87 200 222 209 203 246 236 229 247 222 257 230 222 238 217
244 212 226 289 139 274 266 202 276 290 328 296 129 208 149 134 124 131 125 123 110 102 94 98 102 106 93 87 95 93 88 73 296 198 211 193 215 242 247 235 242 234 240 253
272 294 219 270 113 309 234 257 208 310 291 304 31 39 125 141 140 137 139 131 120 111 110 101 91 79 73 83 72 70 69 78 101 112 100 179 136 179 141 69 352 36 65 351
265 282 302 284 43 250 69 38 360 308 339 104 129 141 234 140 137 135 127 125 123 115 112 95 106 110 101 74 69 74 81 83 93 95 76 75 90 96 76 79 160 308 5 297
257 295 295 277 249 253 150 170 280 250 181 144 124 156 127 138 126 135 133 126 122 121 119 108 103 94 74 85 89 82 67 73 68 75 83 100 100 149 171 201 233 234 229 262
261 235 277 257 277 293 65 62 11 308 256 150 142 127 146 152 179 146 146 137 140 136 123 116 122 137 91 87 105 70 75 62 77 77 74 68 55 56 18 358 326 291 284 276
237 245 240 230 249 251 79 54 355 254 56 56 125 129 155 178 62 132 144 146 149 117 127 116 108 87 100 69 69 65 63 81 78 75 75 71 65 61 37 17 316 319 297 314
222 214 239 242 268 228 34 253 258 57 28 57 116 131 167 100 125 136 143 149 139 133 129 163 127 95 95 87 108 92 82 103 83 70 64 70 64 337 69 333 308 297 286 255
252 206 259 244 59 92 79 46 55 8 103 132 137 145 133 142 143 143 147 154 148 152 153 80 70 90 76 99 49 100 108 112 88 81 78 73 56 26 4 300 311 266 210 272
200 319 286 97 132 132 92 118 137 117 140 162 162 142 167 151 151 155 161 169 171 161 159 120 45 88 116 118 131 110 138 138 163 109 111 134 132 304 2 313 6 334 1 355
45 159 243 196 130 124 169 176 136 116 92 66 90 128 140 147 164 176 181 195 164 122 114 131 145 159 140 112 149 116 149 174 193 183 202 230 156 153 193 71 17 3 62 9
177 198 214 149 143 204 152 180 156 155 157 130 120 108 74 1 154 156 251 150 151 122 118 153 167 155 310 275 254 228 173 197 233 224 207 106 284 200 344 291 163 63 88 149